AirNav   ATP
 
 664 users online  

24CT Bee Field Airport
Jewett City, Connecticut, USA


FAA INFORMATION EFFECTIVE 09 NOVEMBER 2017

Location

FAA Identifier: 24CT
Lat/Long: 41-34-00.7900N / 071-58-00.7800W
41-34.013167N / 071-58.013000W
41.5668861 / -71.9668833
(estimated)
Elevation: 280 ft. / 85 m (estimated)
Time zone: UTC -5 (UTC -4 during Daylight Saving Time)
Zip code: 06351

Airport Operations

Airport use: Private use. Permission required prior to landing
Activation date: 05/2007
Control tower: no
ARTCC: BOSTON CENTER
FSS: BRIDGEPORT FLIGHT SERVICE STATION
Attendance: UNATNDD
Segmented circle: no

Airport Communications

WX ASOS at IJD (14 nm NW): 133.675 (860-456-8839)
WX ASOS at GON (15 nm S): PHONE 860-449-8921
WX ASOS at WST (15 nm SE): 132.375 (401-596-9543)
WX AWOS-3 at LZD (15 nm N): 119.125 (860-779-7251)

Nearby radio navigation aids

VOR radial/distance  VOR name  Freq  Var
ORWr081/1.6NORWICH VOR/DME110.0014W
GONr029/14.7GROTON VOR/DME110.8514W
PUTr207/24.0PUTNAM VOR/DME117.4014W
PVDr263/25.9PROVIDENCE VOR/DME115.6014W
HFDr113/26.4HARTFORD VOR/DME114.9013W
SEYr339/29.7SANDY POINT VOR/DME117.8015W
MADr078/36.0MADISON VOR/DME110.4013W

Airport Services

Runway Information

Runway 1/19

Dimensions: 1700 x 50 ft. / 518 x 15 m
Surface: turf
RUNWAY 1  RUNWAY 19
Traffic pattern: leftleft

Airport Ownership and Management from official FAA records

Ownership: Privately-owned
Owner: WALTER H. HELD
100 BREWSTER RD.
JEWETT CITY, CT 06351
Phone 860-376-4265
Manager: WALTER H. HELD
100 BREWSTER RD.
JEWETT CITY, CT 06351
Phone 860-376-4265

Airport Operational Statistics

Aircraft based on the field: 1
Single engine airplanes: 1
    

Instrument Procedures

There are no published instrument procedures at 24CT.

Some nearby airports with instrument procedures:

KIJD - Windham Airport (14 nm NW)
KGON - Groton-New London Airport (15 nm S)
KWST - Westerly State Airport (15 nm SE)
KLZD - Danielson Airport (15 nm N)
0B8 - Elizabeth Field Airport (19 nm S)
 
Loc | Ops | Rwys | IFR | FBO | Links
Com | Nav | Svcs | Stats | Notes

Silver City Flying Club
 
Area around 24CT (Bee Field Airport)
 
Road maps at: MapQuest Bing Google
 
Aerial photo
No photo
 
Sectional chart

 
Airport distance calculator
Flying to Bee Field Airport? Find the distance to fly.

From to 24CT

Sunrise and sunset
Times for 22-Nov-2017
 Local
(UTC-5)
 Zulu
(UTC)
Morning civil twilight06:1611:16
Sunrise06:4611:46
Sunset16:2221:22
Evening civil twilight16:5221:52

Current date and time
Zulu (UTC)  23-Nov-2017 03:53:48
Local (UTC-5)  22-Nov-2017 22:53:48
 
METAR
KGON 
15nm S 
230256Z 32009G20KT 10SM SCT043 04/M03 A2996 RMK AO2 SLP146 T00391028 51023
KIJD 
15nm NW 
230252Z AUTO 29005KT 10SM OVC042 04/M02 A2997 RMK AO2 SLP148 T00441022 53016
KWST 
15nm SE 
230253Z AUTO VRB04KT 10SM SCT041 04/M01 A2996 RMK AO2 SLP145 T00391011 51026
KOQU 
25nm E 
230250Z 33022KT 10SM SCT032 05/M02 A2992
KPVD 
26nm E 
230251Z 31007G17KT 10SM FEW030 FEW050 04/M02 A2993 RMK AO2 SLP136 T00441017 51019 $
KSNC 
27nm SW 
230335Z AUTO 31011KT 10SM CLR 02/M05 A2998 RMK AO2
TAF
KGON 
15nm S 
222204Z 2222/2318 33013G21KT P6SM BKN025 BKN040 TEMPO 2222/2224 BKN015 FM230000 33013G22KT P6SM FEW025 BKN050 FM230100 33012G21KT P6SM SCT050 FM230500 32011KT P6SM SKC FM230800 32006KT P6SM SKC
NOTAMs
Click for the latest NOTAMs
NOTAMs are issued by the DoD/FAA and will open in a separate window not controlled by AirNav.

 

 
 

Would you like to see your business listed on this page?

 If your business provides an interesting product or service to pilots, flight crews, aircraft, or users of the Bee Field Airport, you should consider listing it here.  To start the listing process, click on the button below
 
Add a business
 

Other Pages about Bee Field Airport

Update a link
 
Copyright © AirNav, LLC. All rights reserved. Privacy Policy  Contact